Regional Weather Roundup
Issued by NWS Jackson, KY

Home | Current Version | Previous Version | Graphics & Text | Print | Product List | Glossary On
Versions: 1 2 3 4 5 6 7 8 9 10 11 12 13 14 15 16 17 18 19 20 21 22 23 24 25 26 27 28 29 30 31 32 33 34 35 36 37 38 39 40 41 42 43 44 45 46 47 48 49 50
000
ASUS43 KJKL 231210
RWRJKL

EAST KENTUCKY HOURLY WEATHER ROUNDUP
NATIONAL WEATHER SERVICE JACKSON KY
800 AM EDT WED APR 23 2014

NOTE: "FAIR" INDICATES FEW OR NO CLOUDS BELOW 12,000 FEET WITH
NO SIGNIFICANT WEATHER AND/OR OBSTRUCTIONS TO VISIBILITY.

* THESE REPORTS ARE NOT UNDER NWS QUALITY CONTROL AND MAY NOT
  REPORT WEATHER SUCH AS PRECIPITATION AND FOG.

KYZ079-080-083-085-087-088-110-112-115-119-120-231300
...EASTERN KENTUCKY...

CITY           SKY/WX    TMP DP  RH WIND       PRES   REMARKS
JACKSON        SUNNY     44  27  51 VRB5      30.02R
6HR MIN TEMP:  42; 6HR MAX TEMP:  49;

LONDON         SUNNY     44  34  67 CALM      30.03R
6HR MIN TEMP:  41; 6HR MAX TEMP:  52;

SOMERSET*      SUNNY     45  32  61 CALM      30.06R
WILLIAMSBURG*  SUNNY     43  34  70 CALM      30.04R
MIDDLESBORO*   SUNNY     46  31  56 CALM      30.03R
6HR MIN TEMP:  42; 6HR MAX TEMP:  55;

HARLAN APT*    SUNNY     45  27  49 CALM      30.01R
BLACK MTN*       N/A     30  23  74 N8          N/A  WCI  23
PIKEVILLE APT* SUNNY     41  28  60 NW6       30.01R
BIG SANDY*     SUNNY     43  30  60 NW5       30.02R
6HR MIN TEMP:  41; 6HR MAX TEMP:  51;

MOREHEAD APT*  SUNNY    N/A N/A N/A NW3       30.06R
$$

KYZ035-036-041-042-044-050-067-078-099-231300
...CENTRAL KENTUCKY...

CITY           SKY/WX    TMP DP  RH WIND       PRES   REMARKS
MT STERLING*   SUNNY     41  32  70 N6        30.06R
FLEMING/MASON* SUNNY     39  32  75 N6        30.06R WCI  35
RICHMOND*      SUNNY     41  32  70 CALM      30.05R
LEXINGTON      SUNNY     41  32  70 N3        30.05R
6HR MIN TEMP:  39; 6HR MAX TEMP:  46;

FRANKFORT      SUNNY     41  32  70 N5        30.06R
6HR MIN TEMP:  37; 6HR MAX TEMP:  48;

$$

KYZ091>093-OHZ055-061-077-WVZ005-015-034-035-042-231300
...SOUTHERN OHIO/WEST VIRGINIA...

CITY           SKY/WX    TMP DP  RH WIND       PRES   REMARKS
COVINGTON      SUNNY     40  31  70 N9        30.06R WCI  34
COLUMBUS       SUNNY     41  29  62 N14       30.03R
DAYTON         SUNNY     38  30  73 N8        30.07R WCI  32
WILMINGTON     SUNNY     39  29  67 N9        30.04R WCI  33
HUNTINGTON     SUNNY     42  31  64 NW7       30.02R
CHARLESTON     MOSUNNY   43  33  68 W8        29.99R
PINEVILLE*     CLOUDY    45  35  69 MISG      30.02R
BECKLEY        PTSUNNY   39  30  70 NW9       29.93R WCI  33
BLUEFIELD      PTSUNNY   42  30  62 NW16G26   29.93R
$$

VAZ002-007-008-TNZ017-027-036-066-071-231300
...SOUTHWEST VIRGINIA/EAST TENNESSEE...

CITY           SKY/WX    TMP DP  RH WIND       PRES   REMARKS
WISE*          SUNNY     41  28  60 NW5       29.98R
ABINGDON*      SUNNY     47  29  51 W8        29.96R
BRISTOL        SUNNY     45  35  68 CALM      29.98R
KNOXVILLE      MOSUNNY   49  36  61 CALM      30.02R
OAK RIDGE      SUNNY     51  32  48 NE7       30.03R
CROSSVILLE     SUNNY     46  29  51 N8        30.03R
NASHVILLE      MOSUNNY   49  38  65 NE6       30.05R
$$

...KEY TO REMARKS...
VSB - VISIBILITY IN MILES
WCI - WIND CHILL INDEX
HX  - HEAT INDEX

$$



USA.gov is the U.S. government's official web portal to all federal, state and local government web resources and services.